User: anonymous   Login
Location: Oroua River
(40.4333°S, 175.4333°E)
Time: 05:33:20
(UTC+00:00)
Language:

Cosmos 44 - Orbit

View from above orbital plane
View from above orbital plane
View from above satellite
View from above satellite

Ground track
Ground track

The orbit data is extracted from the following two-line orbital elements,

1 00876U 64053A   23157.51351576  .00000115  00000-0  41778-4 0  9998
2 00876  65.0608 352.1623 0145768 330.3118  28.9766 14.64218636126558
Epoch (UTC): 06 June 2023 12:19:27
Eccentricity: 0.0145768
inclination: 65.0608°
perigee height: 577 km
apogee height: 782 km
right ascension of ascending node: 352.1623°
argument of perigee: 330.3118°
revolutions per day: 14.64218636
mean anomaly at epoch: 28.9766°
orbit number at epoch: 12655

The dashed part of the orbit path shows where the satellite is in the earth's shadow,  

DLR